Find Starlink 4445

NORAD ID: 53474 Int'l Des: 2022-099 Owner: SPXS Country: US Constellation: starlink operational
LEOCIRCULARRETROGRADESSO

Live Position

Loading 3D Globe...

About Starlink 4445

Description loading...

Upcoming Passes

Passes for default location (London). Set your location on the main map for personalized predictions.

Altitude History

Loading altitude history...

Two-Line Element Set

1 53474U 22099K 26122.10615992 .00000089 00000-0 10320-4 0 9998
2 53474 97.5500 242.7319 0002151 201.1786 158.9352 15.05648120204015
Epoch: May 2, 2026 • Age: 11 hours

Current Status

Altitude 557.6 km
Velocity 7.59 km/s
Sub-Earth Point 44.24°N, 166.67°E
Launch Date Aug 12, 2022
Age 3.7 years
Type internet

Technical Details

Classification Payload
Mass 300.00 kg
Dry Mass 275.00 kg
Total Mass 300.00 kg
Length 0.20 m
Diameter 2.80 m
Span 9.00 m
Shape Box + pan
Manufacturer SPXS
Bus Type Starlink
Phase Status In Orbit
Owner/State SPXS/US

Most Searched